User: anonymous   Login
Location: Unspecified
(0.0000°N, 0.0000°E)
Time: 04:52:50
(UTC+01:00)
Language:

CZ-4B R/B - Orbit

View from above orbital plane
View from above orbital plane
View from above satellite
View from above satellite

Ground track
Ground track

The orbit data is extracted from the following two-line orbital elements,

1 33410U 08053C   17054.89851794 -.00000235  00000-0 -11874-4 0  9992
2 33410  97.7154  26.6208 0119801 210.8459 148.5688 14.98140037453828
Epoch (UTC): 23 February 2017 21:33:51
Eccentricity: 0.0119801
inclination: 97.7154°
perigee height: 489 km
apogee height: 656 km
right ascension of ascending node: 26.6208°
argument of perigee: 210.8459°
revolutions per day: 14.98140037
mean anomaly at epoch: 148.5688°
orbit number at epoch: 45382

The dashed part of the orbit path shows where the satellite is in the earth's shadow,  

DLR